| time (UTC) | temp F | wind direction | speed MPH | gust MPH | rain 1hr in | rain 24hr in | rain mn in | humidity % | barometer mb |
| 20260504081556 | 37 | 238 | 5.0 | 18.0 | 0.02 | 0.70 | 0.15 | 95 | 978.3 |
| 20260504044536 | 39 | 42 | 0.0 | 5.0 | 0.02 | 0.59 | 0.04 | 96 | 974.5 |
| 20260504043037 | 39 | 67 | 1.0 | 10.0 | 0.02 | 0.57 | 0.03 | 95 | 974.7 |
| 20260504041530 | 39 | 51 | 3.0 | 12.0 | 0.02 | 0.56 | 0.02 | 95 | 975.1 |
| 20260504040028 | 39 | 96 | 4.0 | 16.0 | 0.02 | 0.56 | 0.02 | 95 | 975.7 |
| 20260504034523 | 39 | 173 | 2.0 | 11.0 | 0.02 | 0.56 | 0.02 | 95 | 976.5 |
| 20260504033021 | 39 | 42 | 5.0 | 11.0 | 0.02 | 0.56 | 0.01 | 94 | 976.9 |
| 20260504031518 | 40 | 80 | 6.0 | 15.0 | 0.01 | 0.55 | 0.00 | 94 | 977.7 |
| 20260504030014 | 40 | 44 | 0.0 | 10.0 | 0.01 | 0.55 | 0.55 | 95 | 978.5 |
| 20260504024512 | 40 | 61 | 1.0 | 14.0 | 0.00 | 0.54 | 0.54 | 95 | 978.9 |
| 20260504023010 | 41 | 113 | 3.0 | 15.0 | 0.00 | 0.54 | 0.54 | 95 | 979.4 |
| 20260504021507 | 40 | 86 | 2.0 | 9.0 | 0.01 | 0.54 | 0.54 | 95 | 980.5 |
| 20260504020004 | 40 | 65 | 7.0 | 18.0 | 0.01 | 0.54 | 0.54 | 94 | 981.2 |
| 20260504014502 | 40 | 57 | 5.0 | 19.0 | 0.02 | 0.54 | 0.54 | 94 | 982.1 |
| 20260504013058 | 39 | 52 | 9.0 | 24.0 | 0.03 | 0.54 | 0.54 | 94 | 982.7 |
| 20260504011557 | 39 | 76 | 6.0 | 23.0 | 0.03 | 0.54 | 0.54 | 94 | 983.1 |
| 20260504010053 | 39 | 113 | 10.0 | 24.0 | 0.04 | 0.54 | 0.54 | 93 | 984.2 |
| 20260504004551 | 39 | 87 | 8.0 | 25.0 | 0.03 | 0.53 | 0.53 | 93 | 984.7 |
| 20260504003048 | 40 | 34 | 14.0 | 24.0 | 0.02 | 0.51 | 0.51 | 93 | 985.7 |
| 20260504001549 | 40 | 67 | 11.0 | 27.0 | 0.07 | 0.50 | 0.50 | 93 | 986.0 |
| 20260504000104 | 41 | 55 | 6.0 | 23.0 | 0.13 | 0.50 | 0.50 | 92 | 987.3 |
| 20260503234641 | 40 | 72 | 11.0 | 22.0 | 0.14 | 0.50 | 0.50 | 93 | 988.2 |
| 20260503233041 | 40 | 101 | 11.0 | 29.0 | 0.14 | 0.48 | 0.48 | 93 | 988.5 |
| 20260503231536 | 40 | 53 | 15.0 | 25.0 | 0.11 | 0.43 | 0.43 | 93 | 989.9 |
| 20260503230033 | 40 | 229 | 5.0 | 24.0 | 0.10 | 0.37 | 0.37 | 93 | 990.6 |
| 20260503224531 | 39 | 273 | 4.0 | 19.0 | 0.13 | 0.35 | 0.35 | 94 | 991.6 |
| 20260503223027 | 39 | 67 | 6.0 | 14.0 | 0.14 | 0.34 | 0.34 | 94 | 993.0 |
| 20260503221524 | 38 | 111 | 7.0 | 15.0 | 0.14 | 0.32 | 0.32 | 94 | 993.9 |
| 20260503220023 | 39 | 61 | 2.0 | 23.0 | 0.12 | 0.27 | 0.27 | 94 | 994.7 |
| 20260503214523 | 39 | 135 | 3.0 | 11.0 | 0.10 | 0.22 | 0.22 | 94 | 995.0 |
| 20260503213021 | 39 | 281 | 3.0 | 12.0 | 0.08 | 0.20 | 0.20 | 95 | 995.0 |
| 20260503211518 | 37 | 82 | 7.0 | 16.0 | 0.07 | 0.18 | 0.18 | 94 | 995.2 |
| 20260503210017 | 37 | 55 | 8.0 | 19.0 | 0.05 | 0.15 | 0.15 | 93 | 996.1 |
| 20260503204514 | 39 | 68 | 9.0 | 17.0 | 0.02 | 0.12 | 0.12 | 92 | 996.8 |
| 20260503203011 | 41 | 55 | 9.0 | 22.0 | 0.06 | 0.12 | 0.12 | 90 | 997.3 |
| 20260503201511 | 42 | 62 | 8.0 | 18.0 | 0.06 | 0.11 | 0.11 | 91 | 997.5 |
| 20260503200007 | 42 | 69 | 7.0 | 12.0 | 0.05 | 0.10 | 0.10 | 92 | 998.1 |
| 20260503194504 | 41 | 55 | 8.0 | 26.0 | 0.05 | 0.09 | 0.09 | 91 | 998.9 |
| 20260503193107 | 41 | 71 | 5.0 | 13.0 | 0.06 | 0.06 | 0.06 | 90 | 999.6 |
| 20260503191557 | 42 | 60 | 8.0 | 16.0 | 0.06 | 0.06 | 0.06 | 90 | 1000.7 |
| 20260503190057 | 42 | 75 | 7.0 | 15.0 | 0.06 | 0.06 | 0.06 | 89 | 1001.8 |
| 20260503184605 | 42 | 67 | 8.0 | 15.0 | 0.04 | 0.04 | 0.04 | 86 | 1003.3 |
| 20260503183051 | 43 | 55 | 5.0 | 24.0 | 0.00 | 0.00 | 0.00 | 80 | 1003.7 |
| 20260503181550 | 44 | 103 | 5.0 | 13.0 | 0.00 | 0.00 | 0.00 | 74 | 1004.5 |
| 20260503180042 | 45 | 50 | 4.0 | 13.0 | 0.00 | 0.00 | 0.00 | 73 | 1005.8 |
| 20260503174539 | 47 | 117 | 4.0 | 13.0 | 0.00 | 0.00 | 0.00 | 69 | 1006.2 |
| 20260503173038 | 48 | 55 | 3.0 | 8.0 | 0.00 | 0.00 | 0.00 | 67 | 1006.9 |
| 20260503171552 | 49 | 103 | 2.0 | 6.0 | 0.00 | 0.00 | 0.00 | 64 | 1007.7 |